Miscellaneous Local Product
Issued by NWS Hastings, NE

Home | Current Version | Previous Version | Text Only | Print | Product List | Glossary Off
Versions: 1 2 3 4 5 6 7 8 9 10 11 12 13 14 15 16 17 18 19 20 21 22 23 24 25 26 27 28 29 30 31 32 33 34 35 36 37 38 39 40 41 42 43 44 45 46 47 48 49 50

000
AXUS43 KGID 011802
MISGRI

GID CWA HOURLY WEATHER ROUNDUP
NATIONAL WEATHER SERVICE HASTINGS NE
100 PM CDT MON SEP 01 2014

NOTE: "FAIR" INDICATES FEW OR NO CLOUDS BELOW 12,000 FEET WITH NO
SIGNIFICANT WEATHER AND/OR OBSTRUCTIONS TO VISIBILITY.

...SOUTH CENTRAL NEBRASKA...

CITY           SKY/WX    TMP DP  RH WIND       PRES   REMARKS
GRAND ISLAND   SUNNY     77  59  53 VRB7      29.93F
HASTINGS       MOSUNNY   74  52  46 NW7       29.94F
KEARNEY        SUNNY     73  55  53 W8        29.97R
ORD            SUNNY     74  53  48 VRB5      29.91S
YORK           SUNNY     73 N/A N/A W6        29.92S
AURORA         MOSUNNY   74  58  58 N3        29.92S
LEXINGTON      MOSUNNY   70  55  58 W5        29.97F
HOLDREGE       MOSUNNY   70  55  59 CALM      29.96F
HEBRON         PTSUNNY   69  58  67 CALM      29.93F

...NEBRASKA PANHANDLE...

CITY           SKY/WX    TMP DP  RH WIND       PRES   REMARKS
CHADRON        MOSUNNY   72  48  42 SW5       29.95F
ALLIANCE       SUNNY     72  45  37 SW10G18   29.98F
SCOTTSBLUFF    SUNNY     73  50  44 SE9       29.98F
SIDNEY         MOSUNNY   71  48  43 SW13      30.04F

...WESTERN AND NORTH CENTRAL NEBRASKA...

CITY           SKY/WX    TMP DP  RH WIND       PRES   REMARKS
VALENTINE      SUNNY     75  49  39 W8        29.93S
AINSWORTH      SUNNY     72  51  47 W7        29.94S
ONEILL         SUNNY     75  53  47 NW12      29.91S
BROKEN BOW     MOSUNNY   73  52  47 NW3       29.95S
IMPERIAL       PTSUNNY   68  52  56 CALM      30.01F
NORTH PLATTE   MOSUNNY   73  54  51 W9        29.98F
MCCOOK         CLOUDY    70  56  61 VRB5      29.99F

...EASTERN NEBRASKA...

CITY           SKY/WX    TMP DP  RH WIND       PRES   REMARKS
NORFOLK        SUNNY     76  60  57 NW8       29.89R
SO SIOUX CITY  SUNNY     76  62  62 W7        29.86R
TEKAMAH        MOSUNNY   75  64  68 NW5       29.88R
ALBION         SUNNY     75  56  51 W5        29.90F
OMAHA EPPLEY   MOSUNNY   76  62  62 NW7       29.88S
OFFUTT AFB     SUNNY     77  65  68 W8        29.87S
MILLARD        MOSUNNY   75  62  63 W8        29.88S
LINCOLN        MOSUNNY   79  60  52 NW8G16    29.90S
NEBRASKA CITY  MOSUNNY   74  62  65 NW8       29.88F
BEATRICE       PTSUNNY   72  63  73 W8        29.92R
FALLS CITY     MOSUNNY   75  65  70 W9        29.90R

...NORTHERN KANSAS...

CITY           SKY/WX    TMP DP  RH WIND       PRES   REMARKS
GOODLAND       SUNNY     73  47  39 CALM      30.03F
HILL CITY      SUNNY     77  54  44 VRB5      29.96F
NORTON         CLOUDY    75  46  35 N14       29.95F
PHILLIPSBURG   SUNNY     72  55  56 E3        29.96F
SMITH CENTER   SUNNY     70  55  60 CALM      29.96S
BELOIT         FAIR      73  61  64 CALM      29.92
HAYS           CLOUDY    73  57  56 N6        29.95F
RUSSELL        CLOUDY    76  61  59 NE7       29.93F
CONCORDIA      PTSUNNY   73  63  70 CALM      29.93F
SALINA         CLOUDY    76  65  68 SE5       29.92F
TOPEKA         CLOUDY    79  67  66 SW9G17    29.91S



USA.gov is the U.S. government's official web portal to all federal, state and local government web resources and services.